TimeCST,TemperatureF,Dew PointF,Humidity,Sea Level PressureIn,VisibilityMPH,Wind Direction,Wind SpeedMPH,Gust SpeedMPH,PrecipitationIn,Events,Conditions,WindDirDegrees,DateUTC
12:51 AM,55.0,52.0,89,30.25,4.0,Calm,Calm,-,N/A,,Partly Cloudy,0,2013-02-03 06:51:00
12:59 AM,53.6,51.8,94,30.25,1.5,Calm,Calm,-,N/A,,Partly Cloudy,0,2013-02-03 06:59:00
1:51 AM,54.0,52.0,93,30.25,1.0,Calm,Calm,-,N/A,,Partly Cloudy,0,2013-02-03 07:51:00
2:03 AM,51.8,51.8,100,30.24,0.8,Calm,Calm,-,N/A,,Partly Cloudy,0,2013-02-03 08:03:00
2:20 AM,51.8,48.2,88,30.24,0.2,Calm,Calm,-,N/A,Fog,Fog,0,2013-02-03 08:20:00
2:29 AM,51.8,48.2,88,30.24,0.5,Calm,Calm,-,N/A,Fog,Fog,0,2013-02-03 08:29:00
2:51 AM,52.0,48.9,89,30.24,0.2,Calm,Calm,-,N/A,Fog,Fog,0,2013-02-03 08:51:00
3:40 AM,51.8,48.2,88,30.24,0.2,Calm,Calm,-,N/A,Fog,Fog,0,2013-02-03 09:40:00
3:51 AM,51.8,48.2,88,30.24,0.2,North,3.5,-,N/A,Fog,Fog,350,2013-02-03 09:51:00
4:29 AM,51.8,50.0,94,30.25,0.5,North,5.8,-,N/A,Fog,Fog,350,2013-02-03 10:29:00
4:43 AM,55.4,53.6,94,30.25,0.5,NNE,12.7,-,N/A,Fog,Fog,20,2013-02-03 10:43:00
4:51 AM,55.9,54.0,93,30.25,0.5,NNE,10.4,-,N/A,Fog,Fog,20,2013-02-03 10:51:00
5:07 AM,57.2,55.4,94,30.26,2.0,NNE,8.1,-,N/A,,Overcast,20,2013-02-03 11:07:00
5:16 AM,57.2,55.4,94,30.26,6.0,NNE,6.9,-,N/A,,Partly Cloudy,20,2013-02-03 11:16:00
5:51 AM,55.0,54.0,96,30.27,8.0,NNE,5.8,-,N/A,,Scattered Clouds,30,2013-02-03 11:51:00
6:51 AM,53.6,53.6,100,30.28,10.0,Calm,Calm,-,N/A,,Partly Cloudy,0,2013-02-03 12:51:00
7:07 AM,55.4,53.6,94,30.28,8.0,NNE,3.5,-,N/A,Fog,Shallow Fog,20,2013-02-03 13:07:00
7:31 AM,55.4,51.8,88,30.28,9.0,North,4.6,-,N/A,Fog,Shallow Fog,10,2013-02-03 13:31:00
7:39 AM,55.4,53.6,94,30.28,10.0,North,4.6,-,N/A,Fog,Shallow Fog,10,2013-02-03 13:39:00
7:48 AM,57.2,53.6,88,30.28,10.0,North,4.6,-,N/A,,Mostly Cloudy,10,2013-02-03 13:48:00
7:51 AM,57.0,54.0,89,30.28,10.0,North,4.6,-,N/A,,Mostly Cloudy,10,2013-02-03 13:51:00
8:03 AM,59.0,55.4,88,30.29,10.0,North,4.6,-,N/A,,Mostly Cloudy,10,2013-02-03 14:03:00
8:29 AM,62.6,57.2,82,30.29,10.0,North,4.6,-,N/A,,Scattered Clouds,10,2013-02-03 14:29:00
8:51 AM,64.0,57.0,78,30.30,10.0,NNE,5.8,-,N/A,,Partly Cloudy,30,2013-02-03 14:51:00
9:51 AM,69.1,57.0,65,30.30,10.0,NNE,8.1,-,N/A,,Partly Cloudy,30,2013-02-03 15:51:00
10:51 AM,72.0,57.9,61,30.30,10.0,Variable,3.5,-,N/A,,Partly Cloudy,0,2013-02-03 16:51:00
11:51 AM,73.0,55.9,55,30.27,10.0,Calm,Calm,-,N/A,,Scattered Clouds,0,2013-02-03 17:51:00
12:51 PM,75.0,57.0,53,30.23,10.0,ENE,8.1,-,N/A,,Scattered Clouds,60,2013-02-03 18:51:00
1:51 PM,75.9,55.0,48,30.19,10.0,ESE,11.5,17.3,N/A,,Scattered Clouds,110,2013-02-03 19:51:00
2:51 PM,73.9,54.0,50,30.16,10.0,ESE,12.7,-,N/A,,Partly Cloudy,120,2013-02-03 20:51:00
3:51 PM,73.0,55.0,53,30.14,10.0,ESE,12.7,-,N/A,,Partly Cloudy,110,2013-02-03 21:51:00
4:51 PM,72.0,57.0,59,30.14,10.0,ESE,12.7,-,N/A,,Partly Cloudy,110,2013-02-03 22:51:00
5:51 PM,69.1,57.0,65,30.13,10.0,ESE,15.0,-,N/A,,Partly Cloudy,120,2013-02-03 23:51:00
6:51 PM,66.9,57.9,73,30.11,10.0,ESE,11.5,-,N/A,,Clear,120,2013-02-04 00:51:00
7:51 PM,66.0,59.0,78,30.12,10.0,ESE,10.4,-,N/A,,Partly Cloudy,120,2013-02-04 01:51:00
8:51 PM,66.0,59.0,78,30.10,10.0,ESE,12.7,-,N/A,,Partly Cloudy,120,2013-02-04 02:51:00
9:51 PM,66.0,57.9,75,30.08,10.0,SE,12.7,-,N/A,,Clear,130,2013-02-04 03:51:00
10:51 PM,64.9,57.9,78,30.06,10.0,SE,10.4,-,N/A,,Partly Cloudy,140,2013-02-04 04:51:00
11:51 PM,64.0,57.9,80,30.04,10.0,SE,9.2,-,N/A,,Partly Cloudy,140,2013-02-04 05:51:00